Location: Starry Hill Observatory
(46.8582°N, 122.3590°W)
Time: 12:53:27
(UTC-07:00)

Daily predictions for brighter satellites

Satellite Brightness Start Highest point End
(mag) Time Altitude Azimuth Time Altitude Azimuth Time Altitude Azimuth
Cosmos 1741 Rocket 4.1 20:32:31 10° NNW 20:37:45 65° ENE 20:42:58 10° SSE
Cosmos 1980 Rocket 2.8 20:32:56 10° SW 20:38:30 65° WNW 20:44:06 10° NNE
Envisat 3.1 20:37:40 10° SSE 20:42:42 67° ENE 20:47:46 10° N
Cosmos 2026 Rocket 4.3 20:37:56 10° SSW 20:44:17 77° W 20:50:42 10° N
USA 267 4.3 20:42:28 10° SSE 20:48:35 41° SW 20:54:44 10° WNW
NOSS 2-3 (D) 4.2 20:45:10 10° S 20:49:36 43° ESE 20:54:45 10° NE
CZ-4B DEB 4.4 20:47:42 10° ESE 20:49:38 17° ENE 20:51:34 10° NNE
CZ-2D R/B 3.9 20:45:52 10° S 20:49:40 58° W 20:53:30 10° NNW
H-2A R/B 3.8 20:49:54 10° E 20:52:38 15° ENE 20:55:21 10° NNE
EXPRESS MD2 2.9 20:51:08 10° SW 20:53:41 59° SSE 20:58:05 10° ENE
Okean 2 Rocket 4.1 20:49:27 10° SSW 20:53:51 52° WNW 20:58:18 10° N
Meteor 2-4 Rocket 3.7 20:53:33 10° N 20:59:08 77° E 21:04:50 10° SSE
USA 186 2.6 20:57:43 10° S 21:01:01 56° W 21:04:21 10° NNW
Cosmos 1655 Rocket 4.4 20:59:23 10° SSW 21:05:39 70° W 21:12:01 10° N
Helios 1B rocket 3.3 21:02:04 10° NE 21:05:43 30° E 21:09:20 10° SSE
SPOT 5 4.1 21:12:51 14° ESE 21:15:46 24° ENE 21:19:28 10° N
ATLAS 2AS CENTAUR R/B 3.1 21:08:32 10° SSW 21:16:04 59° ESE 21:24:00 10° NE
Lacrosse 5 2.0 21:13:01 10° SSW 21:17:54 49° SE 21:22:47 10° ENE
CENTAUR R/B 4.4 21:16:08 10° NW 21:22:19 27° NNE 21:29:02 10° ENE
SL-8 R/B 3.7 21:17:51 10° WNW 21:22:40 85° SSW 21:26:12 18° ESE
Cosmos 883 Rocket 4.4 21:17:12 10° N 21:23:21 82° E 21:29:31 10° S
Cosmos 1331 Rocket 4.4 21:19:18 10° S 21:24:08 41° ESE 21:29:03 10° NE
SeaSat 1 2.4 21:21:01 10° NNE 21:25:59 74° ESE 21:30:53 10° SSW
NOSS 2-3 (E) 3.9 21:21:39 10° SW 21:26:25 84° SE 21:32:06 10° NE
Tiangong 1 2.8 21:26:02 10° WSW 21:27:56 17° SSW 21:28:44 15° S
Atlas Centaur 2 4.4 21:24:27 10° WSW 21:29:48 19° SSW 21:34:08 12° SSE
Cosmos 220 Rocket 4.2 21:25:50 10° NNW 21:30:08 73° WSW 21:33:55 13° SSE
BREEZE-M DEB (TANK) 0.9 21:28:06 10° WSW 21:30:55 70° SSE 21:31:42 32° E
Okean 1 Rocket 3.0 21:28:55 10° S 21:33:16 83° E 21:37:41 10° N
Cosmos 1025 Rocket 2.9 21:29:26 10° N 21:33:43 75° E 21:37:03 16° SSE
Cosmos 1300 Rocket 3.9 21:29:41 10° SSW 21:33:58 66° W 21:38:17 10° N
Okean 2 3.3 21:30:12 10° N 21:34:17 65° E 21:37:04 19° SSE
YAOGAN 6 2.9 21:31:07 11° S 21:34:33 65° W 21:38:04 10° NNW
ARGOS 3.5 21:31:26 19° SE 21:35:00 47° ENE 21:40:09 10° N
Abrixas rocket 2.2 21:37:41 10° WNW 21:40:58 75° N 21:42:28 29° E
Cosmos 2263 Rocket 3.1 21:36:14 10° NW 21:41:40 47° WSW 21:47:03 10° S
Okean 1-7 Rocket 3.6 21:39:54 10° N 21:44:25 89° WSW 21:47:54 17° S
Cosmos 2278 Rocket 3.7 21:40:50 10° N 21:45:26 24° NE 21:48:29 16° E
Cosmos 1515 3.6 21:42:05 10° N 21:45:54 74° E 21:47:54 27° SSE
Cosmos 2322 Rocket 3.1 21:43:13 10° SW 21:48:46 53° WNW 21:54:22 10° NNE
Cosmos 1844 Rocket 3.0 21:43:14 10° NNW 21:48:48 52° ENE 21:51:49 26° ESE
Resurs 01 Rocket 4.2 21:45:38 10° SW 21:48:50 19° W 21:52:03 10° NW
Molniya-1 3.8 21:49:47 10° NNW 21:52:24 57° NE 21:53:13 42° ESE
Cosmos 1818 4.3 21:50:29 24° SSE 21:52:25 30° ESE 21:57:07 10° NE
Cosmos 1975 3.3 21:52:10 34° ESE 21:53:03 38° E 21:56:47 10° NNE
SPOT 1/Viking Rocket 4.1 21:51:20 26° ESE 21:53:45 43° ENE 21:58:41 10° N
SOZ 4.1 21:51:29 10° WNW 21:53:47 63° SSW 21:53:50 63° SSW
Cosmos 2237 4.3 21:49:53 10° S 21:55:22 52° ESE 22:00:54 10° NE
Terra 3.2 21:55:49 21° E 21:57:09 23° ENE 22:00:53 10° N
Helios 1A 4.0 21:54:42 11° S 21:58:33 44° W 22:02:39 10° NNW
Meteor 1-29 2.9 21:55:56 10° NNE 21:59:22 84° WNW 22:01:32 21° SSW
SL-16 R/B 3.5 21:55:46 10° SW 22:01:09 43° NW 22:06:35 10° NNE
H-2A R/B 4.1 22:00:58 13° ENE 22:01:48 14° ENE 22:04:04 10° NNE
Cosmos 1500 3.1 22:01:57 32° S 22:03:37 72° E 22:07:30 10° NNE
MetOp-B 4.1 22:00:52 23° SSE 22:04:19 87° WSW 22:09:43 10° NNW
Cosmos 2219 Rocket 3.0 22:06:05 29° ESE 22:06:15 29° ESE 22:11:01 10° NE
BREEZE M DEB (TANK) 3.5 21:59:41 10° W 22:07:11 63° N 22:08:43 29° ENE
Cosmos 2315 Rocket 4.4 22:01:10 10° NNW 22:07:20 64° W 22:13:09 12° S
USA 245 3.6 22:05:52 32° SSE 22:08:03 76° ENE 22:12:07 10° N
NOSS 3-2 (A) 4.0 22:01:06 10° NW 22:08:28 72° NE 22:13:01 28° SE
ERS-1 Rocket 3.2 22:06:42 21° S 22:10:03 66° WSW 22:15:05 10° NNW
USA 238 DEB 3.9 22:03:41 10° NW 22:10:45 73° SW 22:14:50 28° SSE
USA 238 3.9 22:03:46 10° NW 22:10:51 73° SW 22:14:56 28° SSE
Meteor 1-12 Rocket 4.3 22:09:22 27° SSE 22:12:18 58° E 22:17:51 10° NNE
Cosmos 2322 3.6 22:06:44 10° SSW 22:12:24 88° ESE 22:18:07 10° NNE
Cosmos 1626 Rocket 4.2 22:16:17 10° N 22:20:20 38° ENE 22:20:35 37° E
Cosmos 2360 Rocket 2.5 22:15:37 10° SW 22:21:14 68° WNW 22:26:52 10° NNE
Cosmos 1892 Rocket 3.6 22:18:48 10° NNW 22:23:14 74° W 22:24:47 39° S
COSMOS 2428 2.7 22:19:31 20° S 22:23:28 62° ESE 22:29:07 10° NNE
ATLAS 3B R/B 3.1 22:18:33 10° NW 22:25:03 52° WSW 22:28:27 27° S
Cosmos 1844 3.7 22:22:00 10° NNW 22:27:43 77° ENE 22:29:39 43° SE
ATLAS CENTAUR R/B 3.7 22:26:42 10° N 22:28:18 12° NNE 22:29:33 11° NE
Cosmos 1437 Rocket 3.2 22:30:01 47° ENE 22:30:01 47° ENE 22:33:22 10° NNE
Cosmos 1238 Rocket 4.2 22:23:21 10° NNW 22:30:05 72° W 22:33:56 25° S
H-2A R/B 1.9 22:29:39 42° SSE 22:31:24 87° WSW 22:36:24 10° NNW
Cosmos 1745 Rocket 3.9 22:30:27 36° SSE 22:33:00 67° E 22:39:08 10° NNE
Cosmos 2333 Rocket 2.7 22:36:58 40° E 22:36:58 40° E 22:41:56 10° NE
Cosmos 405 3.7 22:36:26 42° WSW 22:37:14 53° WNW 22:40:47 10° N
Cosmos 1544 Rocket 3.6 22:38:34 44° SSW 22:39:55 77° W 22:44:24 10° N
Helios 1B rocket 4.5 22:37:27 10° N 22:40:56 27° WNW 22:44:24 10° SW
Cosmos 2333 4.0 22:40:25 26° SSW 22:43:46 81° ESE 22:49:24 10° NNE
Cosmos 1302 Rocket 4.2 22:39:48 15° SSW 22:44:12 74° WNW 22:49:31 10° NNE
IGS 5A 3.7 22:46:13 56° ENE 22:46:13 56° ENE 22:50:08 10° N
BREEZE-M DEB (TANK) 4.0 22:43:05 10° W 22:47:25 81° N 23:05:35 10° E
NOSS 3-2 (C) 3.9 22:40:14 10° NW 22:47:42 88° NE 22:50:54 41° SE
GP-B 3.3 22:43:23 10° N 22:47:27 53° ENE 22:47:27 53° ENE
Cosmos 1666 3.3 22:49:48 50° NNE 22:49:48 50° NNE 22:52:49 10° NNE
COSMOS 2455 4.1 22:45:38 10° NNW 22:50:57 31° NE 22:53:12 24° ENE
Aureole 2 Rocket 4.5 22:53:55 20° NNE 22:53:55 20° NNE 22:55:00 10° NNE
Cosmos 968 Rocket 4.0 22:47:12 10° N 22:52:04 41° ENE 22:52:34 40° ENE
Cosmos 1455 Rocket 3.3 22:51:16 48° SW 22:52:19 66° W 22:56:47 10° N
Cosmos 2237 Rocket 3.0 22:54:11 33° E 22:54:11 33° E 22:58:07 10° NE
SPOT 5 3.6 22:52:07 34° SW 22:53:38 45° W 22:58:06 10° NNW
Cosmos 1386 Rocket 4.4 22:54:43 47° S 22:56:40 80° E 23:03:00 10° N
Cosmos 1842 3.8 22:54:30 10° N 22:57:40 52° NNE 22:57:40 52° NNE
Cosmos 1980 4.2 23:00:19 42° E 23:00:19 42° E 23:04:53 10° NE
Lacrosse 5 2.9 22:56:04 10° W 23:00:57 46° NNW 23:05:51 10° NE
BREEZE-M DEB (TANK) 4.2 22:42:44 10° WSW 23:04:31 86° SSE 23:08:20 20° ENE
Cosmos 1743 3.4 23:06:29 52° WNW 23:06:29 52° WNW 23:09:58 10° N
ATLAS 2AS CENTAUR R/B 4.0 22:59:48 10° WSW 23:07:24 48° NW 23:15:15 10° NE
EXPRESS MD2 4.4 23:08:01 10° WNW 23:11:52 63° N 23:19:57 10° E
CENTAUR R/B 3.3 23:06:54 10° NW 23:14:33 63° NE 23:17:39 40° ESE
Cosmos 2297 4.2 23:11:48 10° NNW 23:17:16 47° NE 23:17:53 45° ENE
NOSS 3-4 (A) 3.3 23:16:06 58° S 23:17:20 73° SE 23:23:51 10° NE
NOSS 3-4 (C) 3.3 23:16:18 59° S 23:17:27 73° SE 23:23:57 10° NE
Timation 1 Rocket 4.2 23:12:44 10° NNW 23:18:45 78° WSW 23:19:30 67° S
Landsat 7 4.4 23:18:52 46° WSW 23:19:17 47° W 23:23:53 10° NNW
DMSP B5D2-2 4.4 23:18:10 10° N 23:23:23 64° WNW 23:24:35 50° SW
CARTOSAT-1 4.2 23:24:49 52° WNW 23:24:49 52° WNW 23:28:41 10° NNW
BREEZE-M (TANK) 3.7 23:19:17 10° WNW 23:27:53 48° WSW 23:27:53 48° WSW
Cosmos 2278 Rocket 2.2 23:24:23 10° NNW 23:30:03 70° WSW 23:30:19 69° SW
ARGOS Delta rocket 4.0 23:27:00 10° N 23:30:57 67° N 23:30:57 67° N
Cosmos 1844 Rocket 4.1 23:27:40 10° NW 23:32:23 28° WSW 23:33:29 26° WSW
Terra 2.5 23:34:42 47° W 23:34:42 47° W 23:39:14 10° NNW
Cosmos 1818 4.3 23:30:51 12° WSW 23:35:46 52° NW 23:41:06 10° NNE
H-2A R/B 2.7 23:38:05 55° NNW 23:38:05 55° NNW 23:41:37 10° NNW
USA 215 4.3 23:33:40 14° E 23:38:58 42° NNE 23:45:02 10° NW
Cosmos 2181 Rocket 3.9 23:33:05 10° N 23:39:34 85° W 23:40:18 72° S
Cosmos 1709 Rocket 3.9 23:39:58 66° SW 23:40:50 79° W 23:47:08 10° N
Cosmos 1953 Rocket 4.5 23:36:35 10° N 23:39:51 44° NNE 23:39:51 44° NNE
USA 81 4.3 23:40:37 10° NNW 23:45:49 63° W 23:45:49 63° W
CZ-2C R/B 3.8 23:42:21 10° NNE 23:45:57 32° ENE 23:45:57 32° ENE
SL-19 R/B 4.4 23:41:08 10° NNE 23:47:29 85° WNW 23:48:12 72° SSW
CZ-2C R/B 3.6 23:48:33 45° NE 23:48:33 45° NE 23:52:25 10° N
Cosmos 2219 Rocket 2.9 23:47:44 33° WSW 23:49:55 50° WNW 23:55:27 10° NNE
Meteor 2-13 Rocket 4.4 23:52:14 72° E 23:52:14 72° E 23:58:13 10° NNE
